Time,TemperatureF,DewpointF,PressureIn,WindDirection,WindDirectionDegrees,WindSpeedMPH,WindSpeedGustMPH,Humidity,HourlyPrecipIn,Conditions,Clouds,dailyrainin,SoftwareType,DateUTC
2013-03-10 00:00:00,33.0,31.2,29.87,North,0,5.0,9.0,93,0.01,,,-99.99,Weather View 32 v60,2013-03-10 06:00:00,
2013-03-10 00:05:00,33.0,31.2,29.87,NNE,22,3.0,10.0,93,0.01,,,-99.99,Weather View 32 v60,2013-03-10 06:05:00,
2013-03-10 00:10:00,33.0,31.2,29.88,NE,45,6.0,10.0,93,0.01,,,-99.99,Weather View 32 v60,2013-03-10 06:10:00,
2013-03-10 00:15:00,33.0,31.2,29.87,NNE,22,6.0,10.0,93,0.01,,,-99.99,Weather View 32 v60,2013-03-10 06:15:00,
2013-03-10 00:20:00,33.0,31.2,29.88,ESE,112,2.0,10.0,93,0.01,,,-99.99,Weather View 32 v60,2013-03-10 06:20:00,
2013-03-10 00:25:00,33.0,31.2,29.88,NE,45,3.0,10.0,93,0.01,,,-99.99,Weather View 32 v60,2013-03-10 06:25:00,
2013-03-10 00:30:00,33.0,31.2,29.88,NNE,22,3.0,11.0,93,0.01,,,-99.99,Weather View 32 v60,2013-03-10 06:30:00,
2013-03-10 00:35:00,33.0,31.2,29.88,NNE,22,4.0,11.0,93,0.01,,,-99.99,Weather View 32 v60,2013-03-10 06:35:00,
2013-03-10 00:40:00,33.0,31.2,29.88,NE,45,5.0,11.0,93,0.01,,,-99.99,Weather View 32 v60,2013-03-10 06:40:00,
2013-03-10 00:45:00,33.0,31.2,29.88,North,0,3.0,11.0,93,0.01,,,-99.99,Weather View 32 v60,2013-03-10 06:45:00,
2013-03-10 00:50:00,33.0,31.2,29.88,NE,45,3.0,11.0,93,0.01,,,-99.99,Weather View 32 v60,2013-03-10 06:50:00,
2013-03-10 00:55:00,33.0,31.2,29.89,East,90,3.0,11.0,93,0.01,,,-99.99,Weather View 32 v60,2013-03-10 06:55:00,
2013-03-10 01:05:00,33.0,31.2,29.88,NNE,22,5.0,11.0,93,0.01,,,-99.99,Weather View 32 v60,2013-03-10 07:05:00,
2013-03-10 01:10:00,33.0,31.2,29.89,NE,45,3.0,11.0,93,0.01,,,-99.99,Weather View 32 v60,2013-03-10 07:10:00,
2013-03-10 01:15:00,33.0,31.2,29.88,North,0,3.0,11.0,93,0.01,,,-99.99,Weather View 32 v60,2013-03-10 07:15:00,
2013-03-10 01:20:00,33.0,31.2,29.88,East,90,3.0,11.0,93,0.01,,,-99.99,Weather View 32 v60,2013-03-10 07:20:00,
2013-03-10 01:25:00,33.0,31.2,29.88,NNE,22,2.0,11.0,93,0.00,,,-99.99,Weather View 32 v60,2013-03-10 07:25:00,
2013-03-10 01:30:00,33.0,31.2,29.88,NNE,22,5.0,10.0,93,0.00,,,-99.99,Weather View 32 v60,2013-03-10 07:30:00,
2013-03-10 01:35:00,33.0,31.2,29.88,ENE,68,3.0,10.0,93,0.00,,,-99.99,Weather View 32 v60,2013-03-10 07:35:00,
2013-03-10 01:40:00,33.0,31.2,29.89,NNE,22,3.0,10.0,93,0.00,,,-99.99,Weather View 32 v60,2013-03-10 07:40:00,
2013-03-10 01:45:00,33.0,31.2,29.89,NE,45,4.0,10.0,93,0.00,,,-99.99,Weather View 32 v60,2013-03-10 07:45:00,
2013-03-10 01:50:00,33.0,31.2,29.89,NE,45,8.0,10.0,93,0.01,,,-99.99,Weather View 32 v60,2013-03-10 07:50:00,
2013-03-10 01:55:00,33.0,31.2,29.88,North,0,2.0,11.0,93,0.01,,,-99.99,Weather View 32 v60,2013-03-10 07:55:00,
2013-03-10 03:00:00,33.0,31.2,29.89,NNE,22,4.0,5.0,93,0.02,,,-99.99,Weather View 32 v60,2013-03-10 08:00:00,
2013-03-10 03:05:00,33.0,31.2,29.88,NNE,22,7.0,11.0,93,0.01,,,-99.99,Weather View 32 v60,2013-03-10 08:05:00,
2013-03-10 03:10:00,33.0,31.2,29.88,NE,45,5.0,11.0,93,0.01,,,-99.99,Weather View 32 v60,2013-03-10 08:10:00,
2013-03-10 03:15:00,33.0,31.2,29.89,North,0,6.0,11.0,93,0.01,,,-99.99,Weather View 32 v60,2013-03-10 08:15:00,
2013-03-10 03:25:00,32.0,30.2,29.90,NNE,22,5.0,11.0,93,0.01,,,-99.99,Weather View 32 v60,2013-03-10 08:25:00,
2013-03-10 03:30:00,33.0,31.2,29.90,NNE,22,6.0,11.0,93,0.01,,,-99.99,Weather View 32 v60,2013-03-10 08:30:00,
2013-03-10 03:35:00,33.0,31.2,29.90,NNW,338,5.0,11.0,93,0.01,,,-99.99,Weather View 32 v60,2013-03-10 08:35:00,
2013-03-10 03:45:00,32.0,30.2,29.90,NE,45,10.0,14.0,93,0.01,,,-99.99,Weather View 32 v60,2013-03-10 08:45:00,
2013-03-10 03:50:00,32.0,30.2,29.91,NE,45,5.0,14.0,93,0.00,,,-99.99,Weather View 32 v60,2013-03-10 08:50:00,
2013-03-10 04:00:00,32.0,30.2,29.91,NE,45,8.0,14.0,93,0.01,,,-99.99,Weather View 32 v60,2013-03-10 09:00:00,
2013-03-10 04:10:00,32.0,29.9,29.92,NNE,22,5.0,14.0,92,0.01,,,-99.99,Weather View 32 v60,2013-03-10 09:10:00,
2013-03-10 04:15:00,32.0,29.9,29.93,North,0,7.0,14.0,92,0.01,,,-99.99,Weather View 32 v60,2013-03-10 09:15:00,
2013-03-10 04:20:00,33.0,31.2,29.89,NNE,22,3.0,11.0,93,0.01,,,-99.99,Weather View 32 v60,2013-03-10 09:20:00,
2013-03-10 04:40:00,32.0,30.2,29.90,NNE,22,5.0,11.0,93,0.01,,,-99.99,Weather View 32 v60,2013-03-10 09:40:00,
2013-03-10 04:45:00,32.0,29.7,29.92,NNE,22,8.0,17.0,91,0.01,,,-99.99,Weather View 32 v60,2013-03-10 09:45:00,
2013-03-10 04:55:00,32.0,30.2,29.91,NNE,22,5.0,14.0,93,0.01,,,-99.99,Weather View 32 v60,2013-03-10 09:55:00,
2013-03-10 05:00:00,32.0,30.2,29.91,NE,45,8.0,14.0,93,0.01,,,-99.99,Weather View 32 v60,2013-03-10 10:00:00,
2013-03-10 05:05:00,32.0,29.9,29.91,North,0,3.0,14.0,92,0.01,,,-99.99,Weather View 32 v60,2013-03-10 10:05:00,
2013-03-10 05:10:00,32.0,29.4,29.93,NE,45,5.0,17.0,90,0.00,,,-99.99,Weather View 32 v60,2013-03-10 10:10:00,
2013-03-10 05:15:00,32.0,29.4,29.93,NE,45,6.0,17.0,90,0.00,,,-99.99,Weather View 32 v60,2013-03-10 10:15:00,
2013-03-10 05:20:00,32.0,29.4,29.93,NE,45,6.0,17.0,90,0.00,,,-99.99,Weather View 32 v60,2013-03-10 10:20:00,
2013-03-10 05:25:00,32.0,29.9,29.92,NNE,22,4.0,14.0,92,0.01,,,-99.99,Weather View 32 v60,2013-03-10 10:25:00,
2013-03-10 05:30:00,32.0,29.9,29.92,NE,45,13.0,14.0,92,0.01,,,-99.99,Weather View 32 v60,2013-03-10 10:30:00,
2013-03-10 05:35:00,32.0,29.9,29.92,East,90,7.0,17.0,92,0.01,,,-99.99,Weather View 32 v60,2013-03-10 10:35:00,
2013-03-10 05:40:00,32.0,29.9,29.92,NE,45,6.0,17.0,92,0.01,,,-99.99,Weather View 32 v60,2013-03-10 10:40:00,
2013-03-10 05:45:00,32.0,29.1,29.94,ENE,68,4.0,15.0,89,0.01,,,-99.99,Weather View 32 v60,2013-03-10 10:45:00,
2013-03-10 05:50:00,32.0,29.7,29.92,ENE,68,5.0,17.0,91,0.01,,,-99.99,Weather View 32 v60,2013-03-10 10:50:00,
2013-03-10 05:55:00,32.0,28.8,29.94,NNE,22,6.0,15.0,88,0.01,,,-99.99,Weather View 32 v60,2013-03-10 10:55:00,
2013-03-10 06:00:00,33.0,29.8,29.95,NNE,22,7.0,19.0,88,0.01,,,-99.99,Weather View 32 v60,2013-03-10 11:00:00,
2013-03-10 06:05:00,32.0,29.4,29.92,ENE,68,6.0,17.0,90,0.00,,,-99.99,Weather View 32 v60,2013-03-10 11:05:00,
2013-03-10 06:15:00,33.0,29.6,29.95,North,0,7.0,19.0,87,0.01,,,-99.99,Weather View 32 v60,2013-03-10 11:15:00,
2013-03-10 06:25:00,33.0,29.6,29.97,NNE,22,8.0,19.0,87,0.01,,,-99.99,Weather View 32 v60,2013-03-10 11:25:00,
2013-03-10 06:30:00,33.0,29.6,29.97,East,90,6.0,19.0,87,0.01,,,-99.99,Weather View 32 v60,2013-03-10 11:30:00,
2013-03-10 06:35:00,33.0,29.6,29.97,NE,45,9.0,19.0,87,0.00,,,-99.99,Weather View 32 v60,2013-03-10 11:35:00,
2013-03-10 07:00:00,33.0,29.3,29.96,NNE,22,10.0,18.0,86,0.01,,,-99.99,Weather View 32 v60,2013-03-10 12:00:00,
2013-03-10 07:10:00,33.0,29.8,29.95,NE,45,5.0,19.0,88,0.01,,,-99.99,Weather View 32 v60,2013-03-10 12:10:00,
2013-03-10 07:20:00,33.0,29.6,29.96,NNE,22,5.0,19.0,87,0.01,,,-99.99,Weather View 32 v60,2013-03-10 12:20:00,
2013-03-10 07:40:00,33.0,29.6,29.97,NNE,22,8.0,19.0,87,0.00,,,-99.99,Weather View 32 v60,2013-03-10 12:40:00,
2013-03-10 07:45:00,33.0,29.3,29.97,North,0,5.0,19.0,86,0.00,,,-99.99,Weather View 32 v60,2013-03-10 12:45:00,
2013-03-10 07:50:00,33.0,29.3,29.96,NE,45,3.0,19.0,86,0.00,,,-99.99,Weather View 32 v60,2013-03-10 12:50:00,
2013-03-10 07:55:00,33.0,29.3,29.95,East,90,5.0,19.0,86,0.01,,,-99.99,Weather View 32 v60,2013-03-10 12:55:00,
2013-03-10 08:00:00,33.0,29.3,29.96,NNE,22,10.0,18.0,86,0.01,,,-99.99,Weather View 32 v60,2013-03-10 13:00:00,
2013-03-10 08:05:00,33.0,29.3,29.96,North,0,4.0,18.0,86,0.01,,,-99.99,Weather View 32 v60,2013-03-10 13:05:00,
2013-03-10 08:10:00,33.0,29.3,29.97,North,0,6.0,18.0,86,0.01,,,-99.99,Weather View 32 v60,2013-03-10 13:10:00,
2013-03-10 08:15:00,33.0,29.0,29.97,NNE,22,12.0,18.0,85,0.01,,,-99.99,Weather View 32 v60,2013-03-10 13:15:00,
2013-03-10 08:20:00,33.0,29.0,29.97,NE,45,11.0,19.0,85,0.01,,,-99.99,Weather View 32 v60,2013-03-10 13:20:00,
2013-03-10 08:25:00,33.0,29.0,29.97,ENE,68,5.0,19.0,85,0.01,,,-99.99,Weather View 32 v60,2013-03-10 13:25:00,
2013-03-10 08:30:00,33.0,29.0,29.96,NNE,22,5.0,19.0,85,0.01,,,-99.99,Weather View 32 v60,2013-03-10 13:30:00,
2013-03-10 08:35:00,33.0,28.7,29.98,NNE,22,10.0,19.0,84,0.01,,,-99.99,Weather View 32 v60,2013-03-10 13:35:00,
2013-03-10 08:40:00,33.0,28.4,30.01,NNE,22,10.0,16.0,83,0.00,,,-99.99,Weather View 32 v60,2013-03-10 13:40:00,
2013-03-10 08:45:00,33.0,28.4,30.03,NE,45,6.0,16.0,83,0.00,,,-99.99,Weather View 32 v60,2013-03-10 13:45:00,
2013-03-10 08:50:00,33.0,28.7,30.00,NNE,22,5.0,19.0,84,0.01,,,-99.99,Weather View 32 v60,2013-03-10 13:50:00,
2013-03-10 08:55:00,33.0,28.7,30.02,NNE,22,3.0,19.0,84,0.00,,,-99.99,Weather View 32 v60,2013-03-10 13:55:00,
2013-03-10 09:00:00,33.0,28.4,30.02,ENE,68,5.0,16.0,83,0.00,,,-99.99,Weather View 32 v60,2013-03-10 14:00:00,
2013-03-10 09:15:00,33.0,28.7,30.02,NNE,22,10.0,19.0,84,0.00,,,-99.99,Weather View 32 v60,2013-03-10 14:15:00,
2013-03-10 09:20:00,33.0,28.7,30.02,East,90,5.0,18.0,84,0.00,,,-99.99,Weather View 32 v60,2013-03-10 14:20:00,
2013-03-10 09:25:00,33.0,28.7,30.02,NNE,22,5.0,18.0,84,0.00,,,-99.99,Weather View 32 v60,2013-03-10 14:25:00,
2013-03-10 09:30:00,33.0,28.1,30.02,NNE,22,8.0,16.0,82,0.01,,,-99.99,Weather View 32 v60,2013-03-10 14:30:00,
2013-03-10 09:50:00,33.0,28.4,30.03,NE,45,5.0,16.0,83,0.00,,,-99.99,Weather View 32 v60,2013-03-10 14:50:00,
2013-03-10 09:55:00,33.0,28.4,30.03,NE,45,6.0,16.0,83,0.00,,,-99.99,Weather View 32 v60,2013-03-10 14:55:00,
2013-03-10 10:05:00,33.0,28.1,30.02,NE,45,6.0,16.0,82,0.00,,,-99.99,Weather View 32 v60,2013-03-10 15:05:00,
2013-03-10 10:10:00,33.0,28.1,30.01,NNE,22,7.0,16.0,82,0.00,,,-99.99,Weather View 32 v60,2013-03-10 15:10:00,
2013-03-10 10:15:00,33.0,28.1,30.01,NE,45,6.0,16.0,82,0.01,,,-99.99,Weather View 32 v60,2013-03-10 15:15:00,
2013-03-10 10:20:00,33.0,28.1,30.00,NE,45,6.0,16.0,82,0.01,,,-99.99,Weather View 32 v60,2013-03-10 15:20:00,
2013-03-10 10:25:00,33.0,28.1,30.00,NE,45,6.0,16.0,82,0.01,,,-99.99,Weather View 32 v60,2013-03-10 15:25:00,
2013-03-10 10:35:00,33.0,28.4,30.03,SE,135,5.0,16.0,83,0.01,,,-99.99,Weather View 32 v60,2013-03-10 15:35:00,
2013-03-10 10:40:00,33.0,28.4,30.03,ENE,68,3.0,16.0,83,0.01,,,-99.99,Weather View 32 v60,2013-03-10 15:40:00,
2013-03-10 10:45:00,33.0,28.1,30.04,North,0,5.0,16.0,82,0.01,,,-99.99,Weather View 32 v60,2013-03-10 15:45:00,
2013-03-10 10:50:00,33.0,28.1,30.04,East,90,5.0,15.0,82,0.01,,,-99.99,Weather View 32 v60,2013-03-10 15:50:00,
2013-03-10 10:55:00,33.0,28.1,30.04,NNE,22,3.0,15.0,82,0.01,,,-99.99,Weather View 32 v60,2013-03-10 15:55:00,
2013-03-10 11:00:00,33.0,28.1,30.04,NE,45,5.0,15.0,82,0.01,,,-99.99,Weather View 32 v60,2013-03-10 16:00:00,
2013-03-10 11:05:00,33.0,28.1,30.04,NE,45,6.0,15.0,82,0.01,,,-99.99,Weather View 32 v60,2013-03-10 16:05:00,
2013-03-10 11:15:00,33.0,28.4,30.03,ENE,68,5.0,15.0,83,0.00,,,-99.99,Weather View 32 v60,2013-03-10 16:15:00,
2013-03-10 11:20:00,32.0,27.4,30.04,NNE,22,6.0,16.0,83,0.00,,,-99.99,Weather View 32 v60,2013-03-10 16:20:00,
2013-03-10 11:25:00,32.0,27.4,30.04,East,90,6.0,16.0,83,0.00,,,-99.99,Weather View 32 v60,2013-03-10 16:25:00,
2013-03-10 11:30:00,32.0,27.7,30.05,NNE,22,5.0,16.0,84,0.00,,,-99.99,Weather View 32 v60,2013-03-10 16:30:00,
2013-03-10 11:40:00,32.0,27.7,30.05,NE,45,11.0,16.0,84,0.00,,,-99.99,Weather View 32 v60,2013-03-10 16:40:00,
2013-03-10 11:45:00,32.0,27.7,30.05,ENE,68,5.0,16.0,84,0.00,,,-99.99,Weather View 32 v60,2013-03-10 16:45:00,
2013-03-10 11:50:00,32.0,27.7,30.05,East,90,7.0,18.0,84,0.00,,,-99.99,Weather View 32 v60,2013-03-10 16:50:00,
2013-03-10 12:00:00,32.0,28.0,30.05,NNE,22,6.0,18.0,85,0.01,,,-99.99,Weather View 32 v60,2013-03-10 17:00:00,
2013-03-10 12:05:00,32.0,27.7,30.05,NE,45,5.0,18.0,84,0.01,,,-99.99,Weather View 32 v60,2013-03-10 17:05:00,
2013-03-10 12:10:00,32.0,27.7,30.05,NNE,22,8.0,18.0,84,0.01,,,-99.99,Weather View 32 v60,2013-03-10 17:10:00,
2013-03-10 12:15:00,32.0,27.4,30.04,ESE,112,7.0,18.0,83,0.01,,,-99.99,Weather View 32 v60,2013-03-10 17:15:00,
2013-03-10 12:20:00,32.0,27.4,30.03,ENE,68,6.0,18.0,83,0.01,,,-99.99,Weather View 32 v60,2013-03-10 17:20:00,
2013-03-10 12:25:00,32.0,27.4,30.03,NNE,22,8.0,18.0,83,0.01,,,-99.99,Weather View 32 v60,2013-03-10 17:25:00,
2013-03-10 12:30:00,32.0,27.4,30.04,ENE,68,13.0,18.0,83,0.01,,,-99.99,Weather View 32 v60,2013-03-10 17:30:00,
2013-03-10 12:35:00,32.0,27.1,30.03,NE,45,6.0,18.0,82,0.01,,,-99.99,Weather View 32 v60,2013-03-10 17:35:00,
2013-03-10 12:40:00,32.0,27.1,30.04,East,90,4.0,18.0,82,0.01,,,-99.99,Weather View 32 v60,2013-03-10 17:40:00,
2013-03-10 12:45:00,32.0,27.1,30.04,ENE,68,6.0,18.0,82,0.01,,,-99.99,Weather View 32 v60,2013-03-10 17:45:00,
2013-03-10 12:50:00,32.0,27.1,30.06,ENE,68,3.0,17.0,82,0.01,,,-99.99,Weather View 32 v60,2013-03-10 17:50:00,
2013-03-10 13:00:00,32.0,26.8,30.06,NE,45,4.0,17.0,81,0.00,,,-99.99,Weather View 32 v60,2013-03-10 18:00:00,
2013-03-10 13:05:00,32.0,26.8,30.06,East,90,3.0,17.0,81,0.00,,,-99.99,Weather View 32 v60,2013-03-10 18:05:00,
2013-03-10 13:10:00,32.0,27.1,30.06,NE,45,11.0,17.0,82,0.00,,,-99.99,Weather View 32 v60,2013-03-10 18:10:00,
2013-03-10 13:15:00,32.0,26.8,30.05,ENE,68,3.0,16.0,81,0.00,,,-99.99,Weather View 32 v60,2013-03-10 18:15:00,
2013-03-10 13:20:00,32.0,26.8,30.05,East,90,9.0,16.0,81,0.00,,,-99.99,Weather View 32 v60,2013-03-10 18:20:00,
2013-03-10 13:25:00,32.0,26.8,30.05,NE,45,6.0,14.0,81,0.00,,,-99.99,Weather View 32 v60,2013-03-10 18:25:00,
2013-03-10 13:30:00,32.0,26.8,30.05,NE,45,6.0,14.0,81,0.00,,,-99.99,Weather View 32 v60,2013-03-10 18:30:00,
2013-03-10 13:35:00,32.0,26.8,30.05,ENE,68,7.0,14.0,81,0.00,,,-99.99,Weather View 32 v60,2013-03-10 18:35:00,
2013-03-10 13:40:00,32.0,26.8,30.04,NE,45,4.0,14.0,81,0.00,,,-99.99,Weather View 32 v60,2013-03-10 18:40:00,
2013-03-10 13:45:00,32.0,26.8,30.04,NE,45,6.0,14.0,81,0.00,,,-99.99,Weather View 32 v60,2013-03-10 18:45:00,
2013-03-10 13:50:00,32.0,26.8,30.04,ENE,68,6.0,14.0,81,0.00,,,-99.99,Weather View 32 v60,2013-03-10 18:50:00,
2013-03-10 13:55:00,32.0,26.5,30.03,NE,45,10.0,14.0,80,0.00,,,-99.99,Weather View 32 v60,2013-03-10 18:55:00,
2013-03-10 14:00:00,32.0,26.5,30.02,NE,45,6.0,14.0,80,0.00,,,-99.99,Weather View 32 v60,2013-03-10 19:00:00,
2013-03-10 14:07:00,32.0,26.5,30.01,East,90,7.0,14.0,80,0.00,,,-99.99,Weather View 32 v60,2013-03-10 19:07:00,
2013-03-10 14:15:00,32.0,26.5,30.01,ENE,68,6.0,16.0,80,0.00,,,-99.99,Weather View 32 v60,2013-03-10 19:15:00,
2013-03-10 14:20:00,32.0,26.5,30.01,ESE,112,6.0,16.0,80,0.00,,,-99.99,Weather View 32 v60,2013-03-10 19:20:00,
2013-03-10 14:25:00,32.0,26.2,30.01,NE,45,8.0,16.0,79,0.00,,,-99.99,Weather View 32 v60,2013-03-10 19:25:00,
2013-03-10 14:30:00,32.0,26.2,30.01,NE,45,14.0,16.0,79,0.00,,,-99.99,Weather View 32 v60,2013-03-10 19:30:00,
2013-03-10 14:35:00,32.0,26.2,30.01,NE,45,7.0,16.0,79,0.00,,,-99.99,Weather View 32 v60,2013-03-10 19:35:00,
2013-03-10 14:40:00,32.0,26.2,30.01,NNE,22,6.0,16.0,79,0.00,,,-99.99,Weather View 32 v60,2013-03-10 19:40:00,
2013-03-10 14:45:00,32.0,26.2,30.01,East,90,6.0,16.0,79,0.00,,,-99.99,Weather View 32 v60,2013-03-10 19:45:00,
2013-03-10 14:50:00,32.0,26.2,30.01,NNE,22,7.0,16.0,79,0.00,,,-99.99,Weather View 32 v60,2013-03-10 19:50:00,
2013-03-10 14:55:00,32.0,26.2,30.01,North,0,7.0,16.0,79,0.00,,,-99.99,Weather View 32 v60,2013-03-10 19:55:00,
2013-03-10 15:00:00,32.0,26.2,30.02,North,0,4.0,16.0,79,0.00,,,-99.99,Weather View 32 v60,2013-03-10 20:00:00,
2013-03-10 15:05:00,32.0,26.2,30.03,ENE,68,8.0,16.0,79,0.00,,,-99.99,Weather View 32 v60,2013-03-10 20:05:00,
2013-03-10 15:10:00,32.0,26.2,30.02,NNE,22,6.0,16.0,79,0.00,,,-99.99,Weather View 32 v60,2013-03-10 20:10:00,
2013-03-10 15:15:00,32.0,26.2,30.02,NNE,22,5.0,18.0,79,0.00,,,-99.99,Weather View 32 v60,2013-03-10 20:15:00,
2013-03-10 15:20:00,32.0,26.2,30.02,NNE,22,7.0,18.0,79,0.00,,,-99.99,Weather View 32 v60,2013-03-10 20:20:00,
2013-03-10 15:30:00,32.0,26.2,30.03,NNW,338,5.0,18.0,79,0.00,,,-99.99,Weather View 32 v60,2013-03-10 20:30:00,
2013-03-10 15:35:00,32.0,26.2,30.03,East,90,3.0,18.0,79,0.00,,,-99.99,Weather View 32 v60,2013-03-10 20:35:00,
2013-03-10 15:40:00,32.0,26.2,30.03,NE,45,3.0,18.0,79,0.00,,,-99.99,Weather View 32 v60,2013-03-10 20:40:00,
2013-03-10 15:45:00,32.0,25.9,30.03,ENE,68,7.0,18.0,78,0.00,,,-99.99,Weather View 32 v60,2013-03-10 20:45:00,
2013-03-10 15:55:00,33.0,26.9,30.03,East,90,6.0,18.0,78,0.00,,,-99.99,Weather View 32 v60,2013-03-10 20:55:00,
2013-03-10 16:00:00,32.0,25.3,30.02,NE,45,10.0,18.0,76,0.00,,,-99.99,Weather View 32 v60,2013-03-10 21:00:00,
2013-03-10 16:05:00,32.0,25.6,30.02,NNE,22,6.0,18.0,77,0.00,,,-99.99,Weather View 32 v60,2013-03-10 21:05:00,
2013-03-10 16:10:00,32.0,25.6,30.02,ENE,68,8.0,18.0,77,0.00,,,-99.99,Weather View 32 v60,2013-03-10 21:10:00,
2013-03-10 16:15:00,32.0,25.6,30.02,NE,45,5.0,17.0,77,0.00,,,-99.99,Weather View 32 v60,2013-03-10 21:15:00,
2013-03-10 16:20:00,32.0,25.3,30.02,NE,45,10.0,17.0,76,0.00,,,-99.99,Weather View 32 v60,2013-03-10 21:20:00,
2013-03-10 16:25:00,32.0,25.3,30.02,SE,135,6.0,17.0,76,0.00,,,-99.99,Weather View 32 v60,2013-03-10 21:25:00,
2013-03-10 16:30:00,32.0,25.6,30.02,NNE,22,8.0,17.0,77,0.00,,,-99.99,Weather View 32 v60,2013-03-10 21:30:00,
2013-03-10 16:35:00,32.0,25.6,30.02,NNE,22,7.0,17.0,77,0.00,,,-99.99,Weather View 32 v60,2013-03-10 21:35:00,
2013-03-10 16:40:00,32.0,25.6,30.01,North,0,8.0,17.0,77,0.00,,,-99.99,Weather View 32 v60,2013-03-10 21:40:00,
2013-03-10 16:50:00,32.0,25.6,30.01,NNE,22,6.0,17.0,77,0.00,,,-99.99,Weather View 32 v60,2013-03-10 21:50:00,
2013-03-10 17:00:00,32.0,25.6,30.01,NE,45,5.0,17.0,77,0.00,,,-99.99,Weather View 32 v60,2013-03-10 22:00:00,
2013-03-10 17:08:00,32.0,25.6,30.01,NNE,22,8.0,18.0,77,0.00,,,-99.99,Weather View 32 v60,2013-03-10 22:08:00,
2013-03-10 17:15:00,32.0,25.6,30.00,East,90,6.0,18.0,77,0.00,,,-99.99,Weather View 32 v60,2013-03-10 22:15:00,
2013-03-10 17:25:00,32.0,25.6,30.00,NNE,22,11.0,18.0,77,0.00,,,-99.99,Weather View 32 v60,2013-03-10 22:25:00,
2013-03-10 17:30:00,32.0,25.6,30.00,NE,45,5.0,18.0,77,0.00,,,-99.99,Weather View 32 v60,2013-03-10 22:30:00,
2013-03-10 17:35:00,31.0,24.6,30.00,NNE,22,6.0,18.0,77,0.00,,,-99.99,Weather View 32 v60,2013-03-10 22:35:00,
2013-03-10 17:40:00,31.0,24.6,30.00,NNE,22,9.0,18.0,77,0.00,,,-99.99,Weather View 32 v60,2013-03-10 22:40:00,
2013-03-10 17:45:00,31.0,24.6,30.00,NE,45,6.0,18.0,77,0.00,,,-99.99,Weather View 32 v60,2013-03-10 22:45:00,
2013-03-10 17:50:00,31.0,24.6,30.00,NNE,22,8.0,18.0,77,0.00,,,-99.99,Weather View 32 v60,2013-03-10 22:50:00,
2013-03-10 17:55:00,31.0,24.6,30.01,NNE,22,10.0,18.0,77,0.00,,,-99.99,Weather View 32 v60,2013-03-10 22:55:00,
2013-03-10 18:00:00,31.0,24.6,30.00,NNE,22,6.0,18.0,77,0.00,,,-99.99,Weather View 32 v60,2013-03-10 23:00:00,
2013-03-10 18:05:00,31.0,24.6,30.00,North,0,7.0,18.0,77,0.00,,,-99.99,Weather View 32 v60,2013-03-10 23:05:00,
2013-03-10 18:10:00,31.0,24.9,30.00,ENE,68,8.0,18.0,78,0.00,,,-99.99,Weather View 32 v60,2013-03-10 23:10:00,
2013-03-10 18:15:00,31.0,24.9,30.00,East,90,6.0,18.0,78,0.00,,,-99.99,Weather View 32 v60,2013-03-10 23:15:00,
2013-03-10 18:20:00,31.0,24.9,30.00,NNE,22,6.0,18.0,78,0.00,,,-99.99,Weather View 32 v60,2013-03-10 23:20:00,
2013-03-10 18:25:00,31.0,24.9,30.00,NE,45,3.0,18.0,78,0.00,,,-99.99,Weather View 32 v60,2013-03-10 23:25:00,
2013-03-10 18:35:00,30.0,24.0,30.00,NE,45,4.0,18.0,78,0.00,,,-99.99,Weather View 32 v60,2013-03-10 23:35:00,
2013-03-10 18:40:00,30.0,24.0,30.00,ENE,68,8.0,18.0,78,0.00,,,-99.99,Weather View 32 v60,2013-03-10 23:40:00,
2013-03-10 18:45:00,30.0,24.0,30.01,NE,45,11.0,17.0,78,0.00,,,-99.99,Weather View 32 v60,2013-03-10 23:45:00,
2013-03-10 18:50:00,30.0,24.0,30.00,NE,45,7.0,17.0,78,0.00,,,-99.99,Weather View 32 v60,2013-03-10 23:50:00,
2013-03-10 18:55:00,30.0,24.0,30.00,NNE,22,12.0,17.0,78,0.00,,,-99.99,Weather View 32 v60,2013-03-10 23:55:00,
2013-03-10 19:00:00,30.0,24.0,30.00,NNE,22,6.0,17.0,78,0.00,,,-99.99,Weather View 32 v60,2013-03-11 00:00:00,
2013-03-10 19:05:00,30.0,24.0,30.00,NE,45,3.0,17.0,78,0.00,,,-99.99,Weather View 32 v60,2013-03-11 00:05:00,
2013-03-10 19:10:00,30.0,24.0,30.00,NNE,22,5.0,17.0,78,0.00,,,-99.99,Weather View 32 v60,2013-03-11 00:10:00,
2013-03-10 19:15:00,30.0,24.0,30.00,NW,315,8.0,17.0,78,0.00,,,-99.99,Weather View 32 v60,2013-03-11 00:15:00,
2013-03-10 19:20:00,30.0,24.0,30.01,NNE,22,11.0,16.0,78,0.00,,,-99.99,Weather View 32 v60,2013-03-11 00:20:00,
2013-03-10 19:25:00,30.0,24.0,30.00,ENE,68,3.0,16.0,78,0.00,,,-99.99,Weather View 32 v60,2013-03-11 00:25:00,
2013-03-10 19:30:00,30.0,24.0,30.00,NE,45,5.0,16.0,78,0.00,,,-99.99,Weather View 32 v60,2013-03-11 00:30:00,
2013-03-10 19:40:00,30.0,24.0,30.00,NNE,22,9.0,16.0,78,0.00,,,-99.99,Weather View 32 v60,2013-03-11 00:40:00,
2013-03-10 19:45:00,30.0,24.0,30.01,East,90,6.0,16.0,78,0.00,,,-99.99,Weather View 32 v60,2013-03-11 00:45:00,
2013-03-10 19:50:00,30.0,24.0,30.01,ENE,68,5.0,16.0,78,0.00,,,-99.99,Weather View 32 v60,2013-03-11 00:50:00,
2013-03-10 20:00:00,30.0,24.0,30.01,East,90,11.0,16.0,78,0.00,,,-99.99,Weather View 32 v60,2013-03-11 01:00:00,
2013-03-10 20:05:00,30.0,24.0,30.01,NE,45,5.0,16.0,78,0.00,,,-99.99,Weather View 32 v60,2013-03-11 01:05:00,
2013-03-10 20:10:00,29.0,23.0,30.02,East,90,8.0,16.0,78,0.00,,,-99.99,Weather View 32 v60,2013-03-11 01:10:00,
2013-03-10 20:20:00,29.0,23.0,30.02,ENE,68,6.0,17.0,78,0.00,,,-99.99,Weather View 32 v60,2013-03-11 01:20:00,
2013-03-10 20:25:00,29.0,23.0,30.02,NE,45,6.0,17.0,78,0.00,,,-99.99,Weather View 32 v60,2013-03-11 01:25:00,
2013-03-10 20:30:00,29.0,23.0,30.02,NE,45,3.0,17.0,78,0.00,,,-99.99,Weather View 32 v60,2013-03-11 01:30:00,
2013-03-10 20:35:00,29.0,23.0,30.02,East,90,3.0,17.0,78,0.00,,,-99.99,Weather View 32 v60,2013-03-11 01:35:00,
2013-03-10 20:40:00,29.0,23.0,30.02,NE,45,8.0,17.0,78,0.00,,,-99.99,Weather View 32 v60,2013-03-11 01:40:00,
2013-03-10 20:45:00,29.0,23.0,30.02,East,90,6.0,17.0,78,0.00,,,-99.99,Weather View 32 v60,2013-03-11 01:45:00,
2013-03-10 20:50:00,29.0,23.0,30.02,NE,45,5.0,17.0,78,0.00,,,-99.99,Weather View 32 v60,2013-03-11 01:50:00,
2013-03-10 20:55:00,29.0,23.0,30.02,East,90,4.0,17.0,78,0.00,,,-99.99,Weather View 32 v60,2013-03-11 01:55:00,
2013-03-10 21:00:00,29.0,23.0,30.02,SE,135,7.0,17.0,78,0.00,,,-99.99,Weather View 32 v60,2013-03-11 02:00:00,
2013-03-10 21:10:00,29.0,23.0,30.02,NNE,22,6.0,17.0,78,0.00,,,-99.99,Weather View 32 v60,2013-03-11 02:10:00,
2013-03-10 21:15:00,29.0,23.0,30.02,NNE,22,5.0,17.0,78,0.00,,,-99.99,Weather View 32 v60,2013-03-11 02:15:00,
2013-03-10 21:20:00,29.0,23.0,30.02,ENE,68,4.0,16.0,78,0.00,,,-99.99,Weather View 32 v60,2013-03-11 02:20:00,
2013-03-10 21:25:00,29.0,22.7,30.02,NE,45,8.0,17.0,77,0.00,,,-99.99,Weather View 32 v60,2013-03-11 02:25:00,
2013-03-10 21:30:00,29.0,23.0,30.02,North,0,6.0,17.0,78,0.00,,,-99.99,Weather View 32 v60,2013-03-11 02:30:00,
2013-03-10 21:35:00,29.0,23.0,30.02,NNE,22,6.0,17.0,78,0.00,,,-99.99,Weather View 32 v60,2013-03-11 02:35:00,
2013-03-10 21:40:00,29.0,23.0,30.02,SE,135,5.0,17.0,78,0.00,,,-99.99,Weather View 32 v60,2013-03-11 02:40:00,
2013-03-10 21:45:00,29.0,22.7,30.02,East,90,8.0,17.0,77,0.00,,,-99.99,Weather View 32 v60,2013-03-11 02:45:00,
2013-03-10 21:50:00,29.0,23.0,30.02,ENE,68,5.0,17.0,78,0.00,,,-99.99,Weather View 32 v60,2013-03-11 02:50:00,
2013-03-10 22:00:00,29.0,22.7,30.02,ENE,68,5.0,17.0,77,0.00,,,-99.99,Weather View 32 v60,2013-03-11 03:00:00,
2013-03-10 22:05:00,29.0,23.0,30.02,ESE,112,3.0,17.0,78,0.00,,,-99.99,Weather View 32 v60,2013-03-11 03:05:00,
2013-03-10 22:10:00,29.0,23.0,30.02,ENE,68,5.0,17.0,78,0.00,,,-99.99,Weather View 32 v60,2013-03-11 03:10:00,
2013-03-10 22:15:00,29.0,23.0,30.02,NE,45,4.0,17.0,78,0.00,,,-99.99,Weather View 32 v60,2013-03-11 03:15:00,
2013-03-10 22:20:00,29.0,22.7,30.02,North,0,4.0,17.0,77,0.00,,,-99.99,Weather View 32 v60,2013-03-11 03:20:00,
2013-03-10 22:25:00,29.0,22.7,30.02,North,0,3.0,17.0,77,0.00,,,-99.99,Weather View 32 v60,2013-03-11 03:25:00,
2013-03-10 22:30:00,29.0,22.7,30.01,NE,45,10.0,17.0,77,0.00,,,-99.99,Weather View 32 v60,2013-03-11 03:30:00,
2013-03-10 22:35:00,29.0,22.7,30.01,ENE,68,6.0,17.0,77,0.00,,,-99.99,Weather View 32 v60,2013-03-11 03:35:00,
2013-03-10 22:40:00,29.0,22.7,30.01,ENE,68,13.0,17.0,77,0.00,,,-99.99,Weather View 32 v60,2013-03-11 03:40:00,
2013-03-10 22:45:00,29.0,22.7,30.01,SE,135,5.0,18.0,77,0.00,,,-99.99,Weather View 32 v60,2013-03-11 03:45:00,
2013-03-10 22:50:00,28.0,21.7,29.98,NE,45,7.0,15.0,77,0.00,,,-99.99,Weather View 32 v60,2013-03-11 03:50:00,
2013-03-10 22:55:00,28.0,21.7,30.01,NNE,22,5.0,18.0,77,0.00,,,-99.99,Weather View 32 v60,2013-03-11 03:55:00,
2013-03-10 23:00:00,28.0,21.7,29.98,ENE,68,6.0,15.0,77,0.00,,,-99.99,Weather View 32 v60,2013-03-11 04:00:00,
2013-03-10 23:05:00,28.0,21.7,29.98,East,90,3.0,15.0,77,0.00,,,-99.99,Weather View 32 v60,2013-03-11 04:05:00,
2013-03-10 23:10:00,28.0,21.7,29.97,NE,45,8.0,15.0,77,0.00,,,-99.99,Weather View 32 v60,2013-03-11 04:10:00,
2013-03-10 23:15:00,28.0,21.7,29.97,ENE,68,6.0,14.0,77,0.00,,,-99.99,Weather View 32 v60,2013-03-11 04:15:00,
2013-03-10 23:20:00,28.0,21.7,29.97,NNE,22,5.0,14.0,77,0.00,,,-99.99,Weather View 32 v60,2013-03-11 04:20:00,
2013-03-10 23:25:00,28.0,22.0,29.97,ENE,68,3.0,14.0,78,0.00,,,-99.99,Weather View 32 v60,2013-03-11 04:25:00,
2013-03-10 23:30:00,28.0,22.0,29.97,NE,45,6.0,14.0,78,0.00,,,-99.99,Weather View 32 v60,2013-03-11 04:30:00,
2013-03-10 23:35:00,28.0,22.0,29.97,NNE,22,6.0,14.0,78,0.00,,,-99.99,Weather View 32 v60,2013-03-11 04:35:00,
2013-03-10 23:40:00,28.0,22.0,29.97,NNE,22,4.0,14.0,78,0.00,,,-99.99,Weather View 32 v60,2013-03-11 04:40:00,
2013-03-10 23:45:00,28.0,22.0,29.96,ENE,68,5.0,14.0,78,0.00,,,-99.99,Weather View 32 v60,2013-03-11 04:45:00,
2013-03-10 23:50:00,28.0,22.0,29.96,SE,135,6.0,14.0,78,0.00,,,-99.99,Weather View 32 v60,2013-03-11 04:50:00,
2013-03-10 23:55:00,27.0,21.1,29.96,NNW,338,3.0,14.0,78,0.00,,,-99.99,Weather View 32 v60,2013-03-11 04:55:00,